Date String (YYYY-MM-DD hh:mm:ss) UTC,Instrument flags,absolute air pressure of the measurement (hPa),sample flow rate (lpm),inlet stack bypass flow (lpm),air temperature of the measurement (°C),ambient temperature measured by the external sensor (°C),aerosol sample conditioner tube jacket temperature (°C),OPC LED temperature (°C),internal box temperature (°C),relative humidity of the measurement (%),span deviation,mass concentration of particles derived from Lorenz-Mie calculation of OPC scattering (μg/m³),mass concentration of particles derived from Lorenz-Mie calculation of OPC scattering (μg/m³),mass concentration of particles derived from Lorenz-Mie calculation of OPC scattering (μg/m³)
DateTimeUTC,F1_M11,P_M11,Q1_M11,Q2_M11,T1_M11,T2_M11,T3_M11,T4_M11,T5_M11,U1_M11,ZSPAN_M11,X0_M11,X2_M11,X1_M11
2023-11-25 14:00:00,SystemResetWarning,0828.6,5.00,000.00,019.2,018.8,000.0,027.4,020.9,10.2,0000.0,0005.71,0003.87,0003.60
2023-11-25 14:01:00,SystemResetWarning,0828.6,4.99,000.00,019.3,019.3,000.0,027.4,021.1,10.2,0000.0,0005.78,0003.88,0003.61
2023-11-25 14:02:00,SystemResetWarning,0828.6,4.99,000.00,019.3,019.3,000.0,027.5,020.9,10.1,0000.0,0005.85,0003.91,0003.63
2023-11-25 14:03:00,SystemResetWarning,0828.6,5.00,000.00,019.3,019.2,000.0,027.5,020.8,10.1,0000.0,0005.98,0003.94,0003.64
2023-11-25 14:04:00,SystemResetWarning,0828.6,5.01,000.00,019.3,019.1,000.0,027.5,020.7,10.2,0000.0,0006.00,0003.95,0003.65
2023-11-25 14:05:00,SystemResetWarning,0828.6,5.00,000.00,019.3,018.9,000.0,027.5,020.6,10.2,0000.0,0006.09,0003.98,0003.66
2023-11-25 14:06:00,SystemResetWarning,0828.6,4.99,000.00,019.3,018.8,000.0,027.5,020.5,10.2,0000.0,0006.04,0003.98,0003.66
2023-11-25 14:07:00,SystemResetWarning,0828.6,4.98,000.00,019.3,018.7,000.0,027.5,020.5,10.2,0000.0,0005.93,0003.98,0003.66
2023-11-25 14:08:00,SystemResetWarning,0828.6,5.01,000.00,019.3,018.6,000.0,027.5,020.4,10.2,0000.0,0005.94,0003.98,0003.66
2023-11-25 14:09:00,SystemResetWarning,0828.6,5.01,000.00,019.2,018.5,000.0,027.5,020.4,10.2,0000.0,0005.85,0003.96,0003.66
2023-11-25 14:10:00,SystemResetWarning,0828.6,4.99,000.00,019.2,018.5,000.0,027.5,020.3,10.3,0000.0,0005.83,0003.97,0003.66
2023-11-25 14:11:00,SystemResetWarning,0828.6,4.99,000.00,019.2,018.5,000.0,027.5,020.3,10.3,0000.0,0005.80,0003.97,0003.66
2023-11-25 14:12:00,SystemResetWarning,0828.6,5.01,000.00,019.2,018.4,000.0,027.5,020.3,10.3,0000.0,0005.70,0003.96,0003.67
2023-11-25 14:13:00,SystemResetWarning,0828.7,5.01,000.00,019.2,018.4,000.0,027.5,020.3,10.3,0000.0,0005.67,0003.94,0003.67
2023-11-25 14:14:00,SystemResetWarning,0828.7,5.00,000.00,019.2,018.3,000.0,027.5,020.2,10.3,0000.0,0005.82,0003.93,0003.69
2023-11-25 14:15:00,SystemResetWarning,0828.7,4.99,000.00,019.1,018.3,000.0,027.5,020.2,10.4,0000.0,0005.86,0003.96,0003.70
2023-11-25 14:16:00,SystemResetWarning,0828.7,4.99,000.00,019.1,018.3,000.0,027.4,020.2,10.4,0000.0,0005.86,0003.96,0003.71
2023-11-25 14:17:00,SystemResetWarning,0828.8,5.00,000.00,019.1,018.2,000.0,027.4,020.2,10.4,0000.0,0005.92,0003.98,0003.73
2023-11-25 14:18:00,SystemResetWarning,0828.8,5.01,000.00,019.1,018.2,000.0,027.4,020.2,10.4,0000.0,0006.07,0004.04,0003.77
2023-11-25 14:19:00,SystemResetWarning,0828.8,5.01,000.00,019.1,018.2,000.0,027.4,020.2,10.4,0000.0,0006.49,0004.08,0003.79
2023-11-25 14:20:00,SystemResetWarning,0828.8,4.99,000.00,019.1,018.1,000.0,027.4,020.2,10.4,0000.0,0006.69,0004.10,0003.81
2023-11-25 14:21:00,SystemResetWarning,0828.8,4.99,000.00,019.0,018.1,000.0,027.4,020.2,10.5,0000.0,0006.86,0004.15,0003.84
2023-11-25 14:22:00,SystemResetWarning,0828.8,5.00,000.00,019.0,018.0,000.0,027.4,020.2,10.5,0000.0,0006.93,0004.18,0003.86
2023-11-25 14:23:00,SystemResetWarning,0828.8,5.00,000.00,019.0,018.0,000.0,027.4,020.2,10.5,0000.0,0007.08,0004.23,0003.89
2023-11-25 14:24:00,SystemResetWarning,0828.9,5.01,000.00,019.0,018.3,000.0,027.4,020.6,10.5,0000.0,0007.40,0004.30,0003.90
2023-11-25 14:25:00,SystemResetWarning,0829.0,5.00,000.00,019.2,019.1,000.0,027.4,021.1,10.4,0000.0,0007.34,0004.32,0003.90
2023-11-25 14:26:00,SystemResetWarning,0828.9,4.99,000.00,019.3,019.3,000.0,027.4,021.0,10.4,0000.0,0007.22,0004.30,0003.90
2023-11-25 14:27:00,SystemResetWarning,0828.9,5.00,000.00,019.3,019.2,000.0,027.4,020.8,10.4,0000.0,0007.18,0004.29,0003.90
2023-11-25 14:28:00,SystemResetWarning,0828.9,5.01,000.00,019.3,019.1,000.0,027.4,020.6,10.4,0000.0,0007.28,0004.31,0003.90
2023-11-25 14:29:00,SystemResetWarning,0829.0,5.00,000.00,019.2,018.9,000.0,027.5,020.5,10.4,0000.0,0007.28,0004.30,0003.89
2023-11-25 14:30:00,SystemResetWarning,0829.0,5.00,000.00,019.2,018.8,000.0,027.5,020.5,10.4,0000.0,0006.94,0004.25,0003.87
2023-11-25 14:31:00,SystemResetWarning,0829.0,5.01,000.00,019.2,018.7,000.0,027.5,020.4,10.4,0000.0,0006.77,0004.26,0003.87
2023-11-25 14:32:00,SystemResetWarning,0829.0,5.00,000.00,019.2,018.6,000.0,027.5,020.3,10.5,0000.0,0006.88,0004.28,0003.86
2023-11-25 14:33:00,SystemResetWarning,0829.0,5.00,000.00,019.2,018.5,000.0,027.5,020.3,10.5,0000.0,0006.84,0004.26,0003.84
2023-11-25 14:34:00,SystemResetWarning,0829.0,4.99,000.00,019.1,018.4,000.0,027.4,020.3,10.5,0000.0,0006.97,0004.23,0003.81
2023-11-25 14:35:00,SystemResetWarning,0829.0,5.00,000.00,019.1,018.3,000.0,027.4,020.2,10.5,0000.0,0007.67,0004.18,0003.81
2023-11-25 14:36:00,SystemResetWarning,0829.0,5.00,000.00,019.1,018.3,000.0,027.4,020.2,10.6,0000.0,0007.67,0004.17,0003.81
2023-11-25 14:37:00,SystemResetWarning,0829.0,5.00,000.00,019.0,018.2,000.0,027.4,020.2,10.6,0000.0,0007.78,0004.19,0003.81
2023-11-25 14:38:00,SystemResetWarning,0829.0,5.00,000.00,019.0,018.1,000.0,027.4,020.2,10.6,0000.0,0007.89,0004.24,0003.81
2023-11-25 14:39:00,SystemResetWarning,0828.9,5.00,000.00,019.0,018.1,000.0,027.4,020.1,10.6,0000.0,0007.92,0004.24,0003.81
2023-11-25 14:40:00,SystemResetWarning,0828.9,5.00,000.00,018.9,018.0,000.0,027.4,020.1,10.6,0000.0,0007.90,0004.23,0003.81
2023-11-25 14:41:00,SystemResetWarning,0828.9,5.00,000.00,018.9,018.0,000.0,027.4,020.1,10.7,0000.0,0008.20,0004.26,0003.83
2023-11-25 14:42:00,SystemResetWarning,0828.9,5.00,000.00,018.9,017.9,000.0,027.3,020.1,10.7,0000.0,0008.49,0004.29,0003.84
2023-11-25 14:43:00,SystemResetWarning,0828.9,4.99,000.00,018.9,017.9,000.0,027.3,020.0,10.8,0000.0,0008.60,0004.32,0003.87
2023-11-25 14:44:00,SystemResetWarning,0828.9,5.00,000.00,018.9,017.9,000.0,027.3,020.0,10.8,0000.0,0008.69,0004.34,0003.89
2023-11-25 14:45:00,SystemResetWarning,0828.9,5.00,000.00,018.9,017.9,000.0,027.3,020.1,10.8,0000.0,0008.65,0004.37,0003.92
2023-11-25 14:46:00,SystemResetWarning,0829.0,5.01,000.00,019.0,018.4,000.0,027.3,020.6,10.8,0000.0,0008.02,0004.40,0003.93
2023-11-25 14:47:00,SystemResetWarning,0829.1,5.01,000.00,019.1,019.2,000.0,027.3,021.0,10.7,0000.0,0007.91,0004.41,0003.95
2023-11-25 14:48:00,SystemResetWarning,0829.0,4.98,000.00,019.2,019.3,000.0,027.3,020.9,10.6,0000.0,0007.89,0004.43,0003.97
2023-11-25 14:49:00,SystemResetWarning,0829.1,5.00,000.00,019.2,019.1,000.0,027.3,020.6,10.7,0000.0,0007.87,0004.43,0003.98
2023-11-25 14:50:00,SystemResetWarning,0829.0,5.02,000.00,019.1,019.0,000.0,027.4,020.5,10.7,0001.1,0007.85,0004.43,0004.00
2023-11-25 14:51:00,SystemResetWarning,0829.1,5.00,000.00,019.1,018.8,000.0,027.4,020.4,10.7,0002.0,0007.94,0004.45,0004.01
2023-11-25 14:52:00,SystemResetWarning,0829.0,5.00,000.00,019.1,018.7,000.0,027.4,020.3,10.7,0002.2,0007.86,0004.47,0004.02
2023-11-25 14:53:00,SystemResetWarning,0829.0,5.00,000.00,019.1,018.6,000.0,027.4,020.3,10.8,0002.4,0007.63,0004.50,0004.03
2023-11-25 14:54:00,SystemResetWarning,0829.0,5.00,000.00,019.1,018.5,000.0,027.4,020.3,10.8,0002.6,0007.41,0004.45,0004.03
2023-11-25 14:55:00,SystemResetWarning,0829.1,4.99,000.00,019.1,018.4,000.0,027.4,020.2,10.8,0001.4,0007.18,0004.41,0004.03
2023-11-25 14:56:00,SystemResetWarning,0829.1,5.00,000.00,019.1,018.4,000.0,027.4,020.2,10.8,0000.0,0007.23,0004.42,0004.04
2023-11-25 14:57:00,SystemResetWarning,0829.1,5.00,000.00,019.1,018.3,000.0,027.4,020.2,10.8,0000.0,0007.21,0004.42,0004.05
2023-11-25 14:58:00,SystemResetWarning,0829.1,5.00,000.00,019.1,018.3,000.0,027.3,020.2,10.9,0000.0,0007.27,0004.44,0004.06
2023-11-25 14:59:00,SystemResetWarning,0829.1,5.00,000.00,019.0,018.2,000.0,027.3,020.1,10.9,0000.0,0007.24,0004.44,0004.06
